Flag for Germany Weather past 2 weeks in Rodgau, Hesse, Germany

Now
52 °F

Light rain. Overcast.


Feels Like: 50 °F
Forecast: 49 / 53 °F
Wind: 6 mph from Southwest

Location: Frankfurt / M-Flughafen

Current Time: Mar 28, 2015 at 5:20:22 PM

Latest Report: Mar 28, 2015 at 5:00 PM


Visibility: 22 mi

Pressure: 30.02 "Hg

Humidity: 65%

Dew point: 40 °F

Location of RodgauLocation

Historic Weather in Rodgau — Graph

°F

Rodgau temperature yesterday

Maximum temperature yesterday: 51 °F (at 5:00 PM)
Minimum temperature yesterday: 40 °F (at 7:00 AM)
Average temperature yesterday: 46 °F

Past Weeks' High & Low Weather Summary

 TemperatureHumidityPressure
High64 °F (Mar 18, 4:00 PM)97% (Mar 21, 6:00 AM)30.31 "Hg (Mar 21, 6:00 AM)
Low29 °F (Mar 24, 5:00 AM)32% (Mar 26, 5:00 PM)29.60 "Hg (Mar 25, 3:00 PM)
Average45 °F69%30.11 "Hg
* Reported Mar 13 3:00 PM — Mar 28 3:00 PM, Rodgau, Weather by CustomWeather, © 2015

Note: Actual official high and low records may vary slightly from our data, if they occured in-between our weather recording intervals... More about our weather records

Advertising

Rodgau weather history for previous 24 hours

 ConditionsComfort  
Time TempWeatherWind HumidityBarometerVisibility
3:00 PM
Sat, Mar 28
56 °FOvercast.8 mph40%30.05 "Hg25 mi
2:00 PM55 °FPartly sunny.7 mph38%30.06 "Hg25 mi
1:00 PM54 °FPassing clouds.8 mph39%30.11 "Hg28 mi
12:00 PM52 °FScattered clouds.5 mph41%30.14 "Hg28 mi
11:00 AM51 °FPartly sunny.5 mph48%30.17 "Hg28 mi
9:00 AM45 °FOvercast.3 mph65%30.21 "Hg28 mi
8:00 AM43 °FPartly sunny.3 mph71%30.22 "Hg28 mi
7:00 AM36 °FScattered clouds.2 mph88%30.24 "Hg28 mi
6:00 AM37 °FOvercast.3 mph84%30.24 "Hg22 mi
5:00 AM38 °FOvercast.1 mph84%30.24 "Hg25 mi
3:00 AM43 °FOvercast.3 mph71%30.24 "Hg25 mi
2:00 AM43 °FOvercast.3 mph68%30.25 "Hg25 mi
1:00 AM42 °FOvercast.1 mph74%30.24 "Hg25 mi
12:00 AM43 °FOvercast.2 mph72%30.24 "Hg25 mi
11:00 PM
Fri, Mar 27
45 °FOvercast.2 mph65%30.23 "Hg25 mi
10:00 PM46 °FOvercast.3 mph59%30.22 "Hg25 mi
9:00 PM48 °FOvercast.3 mph54%30.22 "Hg25 mi
8:00 PM49 °FPassing clouds.6 mph50%30.19 "Hg25 mi
7:00 PM49 °FOvercast.5 mph50%30.16 "Hg25 mi
6:00 PM50 °FOvercast.6 mph48%30.15 "Hg25 mi
5:00 PM51 °FCool.7 mph44%30.13 "HgN/A
Weather by CustomWeather, © 2015

See weather overviewHow to use our weather pages